Regional Weather Roundup
Issued by NWS

Home | Current Version | Previous Version | Graphics & Text | Print | Product List | Glossary On
Versions: 1 2 3 4 5 6 7 8 9 10 11 12 13 14 15 16 17 18 19 20 21 22 23 24 25 26 27 28 29 30 31 32 33 34 35 36 37 38 39 40 41 42 43 44 45 46 47 48 49 50
000
ASUS43 KIND 250709
RWRIN

WEATHER ROUNDUP FOR INDIANA
NATIONAL WEATHER SERVICE INDIANAPOLIS IN
200 AM EST THU DEC 25 2014

NOTE: "FAIR" INDICATES FEW OR NO CLOUDS BELOW 12,000 FEET WITH NO
SIGNIFICANT WEATHER AND/OR OBSTRUCTIONS TO VISIBILITY.

* - STATION DOES NOT REPORT WEATHER SUCH AS PRECIPITATION OR FOG.

+ - STATION NOT QUALITY CONTROLLED BY THE NATIONAL WEATHER SERVICE.
    USE DATA WITH CAUTION...ESPECIALLY DEWPOINT AND RELATIVE
    HUMIDITY OBSERVATIONS.

INZ001>003-010>013-019-020-250800-
NORTHWEST INDIANA

CITY           SKY/WX    TMP DP  RH WIND       PRES   REMARKS
GARY /AIRPORT/ CLOUDY    38  30  72 W10       29.68R
KNOX *+        CLOUDY    36  31  82 W13G18    29.67R
LA PORTE +     CLOUDY    38  35  90 W13G20    29.67R
MICHIGAN CITY+ CLOUDY    36  32  87 W10G23    29.67R
MONTICELLO +   CLOUDY    36  33  91 W15G21    29.72R
RENSSELAER +   CLOUDY    36  36 100 W15       29.72R
VALPARAISO     CLOUDY    36  32  85 W14       29.68R

$$

LMZ046-743>745-250800-
SOUTHERN LAKE MICHIGAN

STATION/POSITION TIME  TEMP WIND        PRES
                       AIR  DIR/SP/G
                 (UTC) (F)  (DEG/KT/KT) (MB)
MICHIGAN CITY    0700   37  240/ 24/ 27   N/A

$$

INZ004-005-014>016-021>024-250800-
NORTH CENTRAL INDIANA

CITY           SKY/WX    TMP DP  RH WIND       PRES   REMARKS
GOSHEN         CLOUDY    36  33  89 W18       29.64R
LOGANSPORT +   CLOUDY    34  32  93 W17G24    29.71R WCI  23
PERU/GRISSOM   CLOUDY    36  36 100 W18G28    29.69R
ROCHESTER +    CLOUDY    37  36  93 W13G22    29.68R
SOUTH BEND     CLOUDY    37  33  85 W16G22    29.65R
WARSAW +       DRIZZLE   34  34 100 W14       29.65R WCI  24

$$

INZ006>009-017-018-025>027-250800-
NORTHEAST INDIANA

CITY           SKY/WX    TMP DP  RH WIND       PRES   REMARKS
ANGOLA *+      CLOUDY    36  34  93 W12       29.60R
AUBURN +       CLOUDY    36  32  87 W12       29.64R
FORT WAYNE     DRIZZLE   36  33  89 W17G25    29.66R
HUNTINGTON +   CLOUDY    35  33  95 W14G21    29.67R WCI  25

$$

INZ028-029-035-036-043>045-051>053-250800-
WEST CENTRAL INDIANA

CITY           SKY/WX    TMP DP  RH WIND       PRES   REMARKS
GREENCASTLE +  CLOUDY    34  32  93 W8G16     29.79R FOG     WCI  27
LAFAYETTE      CLOUDY    36  33  89 W13G22    29.75R
TERRE HAUTE    CLOUDY    37  33  85 W12       29.82R

$$

INZ030>032-037>040-046>048-054>057-064-065-250800-
CENTRAL INDIANA

CITY           SKY/WX    TMP DP  RH WIND       PRES   REMARKS
CP ATTERBURY + CLOUDY    36  34  93 MISG      29.80R
FRANKFORT +    CLOUDY    36  36 100 SW16G24   29.74R
INDIANAPOLIS   LGT RAIN  34  33  96 W16       29.76R WCI  24
-EAGLE CREEK   LGT RAIN  35  33  92 W10G20    29.75R WCI  27
KOKOMO *+      CLOUDY    36  32  87 W20       29.71R
MARION +       CLOUDY    35  33  94 W20       29.71R WCI  24
MT COMFORT *+  CLOUDY    36  36 100 W14       29.76R
SHELBYVILLE    CLOUDY    38  33  82 W17       29.76R
ZIONSVILLE +   DRIZZLE   36  32  87 W16       29.74R

$$

INZ033-034-041-042-049-050-058-059-250800-
EAST CENTRAL INDIANA

CITY           SKY/WX    TMP DP  RH WIND       PRES   REMARKS
MUNCIE         CLOUDY    36  33  89 W14G24    29.71R

$$

INZ060-061-067>069-081>083-085>088-250800-
SOUTHWEST INDIANA

CITY           SKY/WX    TMP DP  RH WIND       PRES   REMARKS
EVANSVILLE     CLOUDY    40  34  79 W13       29.90R
HUNTINGBURG *+ CLOUDY    37  34  87 W13       29.87R
WASHINGTON +   CLOUDY    38  33  83 W12       29.85R

$$

INZ062-063-066-070>080-084-089>092-250800-
SOUTH CENTRAL AND SOUTHEAST INDIANA

CITY           SKY/WX    TMP DP  RH WIND       PRES   REMARKS
BLOOMINGTON    CLOUDY    37  35  92 W10       29.81R
NORTH VERNON + LGT RAIN  37  37 100 SW10      29.80
SEYMOUR +      CLOUDY    39  36  87 W14       29.82

$$



USA.gov is the U.S. government's official web portal to all federal, state and local government web resources and services.